User: anonymous   Login
Location: Oshawa
(43.9000°N, 78.8670°W)
Time: 03:07:01
(UTC-04:00)
Language:

CZ-4C R/B - Orbit

View from above orbital plane
View from above orbital plane
View from above satellite
View from above satellite

Ground track
Ground track

The orbit data is extracted from the following two-line orbital elements,

1 32290U 07055B   15116.30839782  .00007955  00000-0  27001-3 0  9996
2 32290 097.5429 198.8881 0079588 032.3794 008.1306 15.27733052411988
Epoch (UTC): 26 April 2015 07:24:05
Eccentricity: 0.0079588
inclination: 97.5429°
perigee height: 428 km
apogee height: 537 km
right ascension of ascending node: 198.8881°
argument of perigee: 32.3794°
revolutions per day: 15.27733052
mean anomaly at epoch: 8.1306°
orbit number at epoch: 41198

The dashed part of the orbit path shows where the satellite is in the earth's shadow,  

DLR